Previsão horária em Senino

Hoje, 25 Junho, Sexta-feira

Tempo Temperatura Precipitação Vento Pressão Humidade
00:00 +21°C° 0.1 mm 1 m/s 740 mmHg 93%
01:00 +21°C° 0.1 mm 1 m/s 740 mmHg 93%
02:00 +21°C° 0.1 mm 1 m/s 740 mmHg 94%
03:00 +21°C° 0 mm 1 m/s 740 mmHg 93%
04:00 +22°C° 0 mm 1 m/s 740 mmHg 92%
05:00 +22°C° 0 mm 1 m/s 740 mmHg 92%
06:00 +24°C° 0 mm 1 m/s 740 mmHg 83%
07:00 +26°C° 0 mm 1 m/s 740 mmHg 74%
08:00 +28°C° 0 mm 1 m/s 740 mmHg 65%
09:00 +30°C° 0 mm 2 m/s 739 mmHg 59%
10:00 +31°C° 0 mm 2 m/s 739 mmHg 52%
11:00 +34°C° 0 mm 3 m/s 739 mmHg 46%
12:00 +34°C° 0 mm 3 m/s 739 mmHg 44%
13:00 +35°C° 0 mm 3 m/s 739 mmHg 41%
14:00 +35°C° 0 mm 3 m/s 739 mmHg 38%
15:00 +30°C° 3.3 mm 3 m/s 739 mmHg 55%
16:00 +26°C° 3.3 mm 4 m/s 739 mmHg 72%
17:00 +21°C° 3.3 mm 4 m/s 739 mmHg 89%
18:00 +20°C° 1 mm 3 m/s 738 mmHg 90%
19:00 +20°C° 1 mm 2 m/s 738 mmHg 90%
20:00 +20°C° 1 mm 1 m/s 737 mmHg 90%
21:00 +20°C° 0.3 mm 1 m/s 737 mmHg 92%
22:00 +18°C° 0.3 mm 2 m/s 737 mmHg 94%
23:00 +18°C° 0.3 mm 2 m/s 737 mmHg 96%

Amanhã, 26 Junho, Sábado

Tempo Temperatura Precipitação Vento Pressão Humidade
00:00 +18°C° 0 mm 2 m/s 737 mmHg 96%
01:00 +18°C° 0 mm 2 m/s 737 mmHg 96%
02:00 +18°C° 0 mm 2 m/s 737 mmHg 96%
03:00 +18°C° 0 mm 2 m/s 737 mmHg 95%
04:00 +20°C° 0 mm 1 m/s 737 mmHg 94%
05:00 +20°C° 0 mm 1 m/s 736 mmHg 93%
06:00 +21°C° 0 mm 2 m/s 737 mmHg 83%
07:00 +24°C° 0 mm 2 m/s 737 mmHg 73%
08:00 +26°C° 0 mm 2 m/s 737 mmHg 63%
09:00 +27°C° 0 mm 2 m/s 737 mmHg 58%
10:00 +29°C° 0 mm 2 m/s 737 mmHg 52%
11:00 +30°C° 0 mm 2 m/s 737 mmHg 47%
12:00 +31°C° 0 mm 2 m/s 737 mmHg 46%
13:00 +31°C° 0 mm 3 m/s 737 mmHg 45%
14:00 +33°C° 0 mm 3 m/s 736 mmHg 45%
15:00 +31°C° 0 mm 3 m/s 736 mmHg 48%
16:00 +31°C° 0 mm 3 m/s 736 mmHg 52%
17:00 +30°C° 0 mm 3 m/s 736 mmHg 55%
18:00 +28°C° 0 mm 2 m/s 736 mmHg 63%
19:00 +26°C° 0 mm 2 m/s 736 mmHg 71%
20:00 +24°C° 0 mm 1 m/s 736 mmHg 79%
21:00 +23°C° 0 mm 1 m/s 736 mmHg 83%
22:00 +22°C° 0 mm 1 m/s 736 mmHg 87%
23:00 +21°C° 0 mm 1 m/s 737 mmHg 91%

Depois de amanhã, 27 Junho, Domingo

Tempo Temperatura Precipitação Vento Pressão Humidade
00:00 +20°C° 0 mm 1 m/s 737 mmHg 92%
01:00 +20°C° 0 mm 1 m/s 737 mmHg 93%
02:00 +20°C° 0 mm 1 m/s 736 mmHg 94%
03:00 +20°C° 0.1 mm 1 m/s 736 mmHg 94%
04:00 +21°C° 0.1 mm 1 m/s 736 mmHg 93%
05:00 +21°C° 0.1 mm 1 m/s 736 mmHg 92%
06:00 +23°C° 0.2 mm 1 m/s 737 mmHg 86%
07:00 +24°C° 0.2 mm 1 m/s 737 mmHg 80%
08:00 +26°C° 0.2 mm 1 m/s 737 mmHg 75%
09:00 +27°C° 0.4 mm 1 m/s 737 mmHg 70%
10:00 +28°C° 0.4 mm 1 m/s 736 mmHg 66%
11:00 +29°C° 0.4 mm 1 m/s 736 mmHg 61%
12:00 +28°C° 0.8 mm 2 m/s 736 mmHg 67%
13:00 +27°C° 0.8 mm 2 m/s 736 mmHg 73%
14:00 +25°C° 0.8 mm 2 m/s 736 mmHg 79%
15:00 +26°C° 0.4 mm 2 m/s 736 mmHg 79%
16:00 +26°C° 0.4 mm 2 m/s 735 mmHg 79%
17:00 +26°C° 0.4 mm 2 m/s 735 mmHg 78%
18:00 +25°C° 0.6 mm 2 m/s 735 mmHg 83%
19:00 +23°C° 0.6 mm 2 m/s 735 mmHg 88%
20:00 +21°C° 0.6 mm 2 m/s 735 mmHg 93%
21:00 +20°C° 0.8 mm 2 m/s 735 mmHg 95%
22:00 +20°C° 0.8 mm 2 m/s 735 mmHg 96%
23:00 +19°C° 0.8 mm 2 m/s 735 mmHg 98%

28 Junho, Segunda-feira

Tempo Temperatura Precipitação Vento Pressão Humidade
00:00 +19°C° 0 mm 2 m/s 735 mmHg 98%
01:00 +19°C° 0 mm 2 m/s 735 mmHg 98%
02:00 +18°C° 0 mm 2 m/s 735 mmHg 98%
03:00 +18°C° 0.4 mm 2 m/s 735 mmHg 98%
04:00 +18°C° 0.4 mm 2 m/s 735 mmHg 98%
05:00 +18°C° 0.4 mm 2 m/s 735 mmHg 97%
06:00 +19°C° 0.3 mm 2 m/s 735 mmHg 97%
07:00 +19°C° 0.3 mm 2 m/s 735 mmHg 97%
08:00 +19°C° 0.3 mm 2 m/s 735 mmHg 97%
09:00 +19°C° 0.5 mm 2 m/s 735 mmHg 97%
10:00 +19°C° 0.5 mm 2 m/s 735 mmHg 97%
11:00 +19°C° 0.5 mm 2 m/s 735 mmHg 97%
12:00 +19°C° 1 mm 2 m/s 735 mmHg 97%
13:00 +19°C° 1 mm 2 m/s 735 mmHg 97%
14:00 +19°C° 1 mm 3 m/s 735 mmHg 97%
15:00 +19°C° 0.7 mm 3 m/s 734 mmHg 97%
16:00 +19°C° 0.7 mm 3 m/s 734 mmHg 97%
17:00 +19°C° 0.7 mm 4 m/s 734 mmHg 97%
18:00 +19°C° 0.8 mm 4 m/s 733 mmHg 97%
19:00 +18°C° 0.8 mm 4 m/s 733 mmHg 97%
20:00 +18°C° 0.8 mm 4 m/s 733 mmHg 97%
21:00 +18°C° 0.4 mm 4 m/s 733 mmHg 97%
22:00 +18°C° 0.4 mm 4 m/s 733 mmHg 97%
23:00 +18°C° 0.4 mm 4 m/s 732 mmHg 97%

29 Junho, Terça-feira

Tempo Temperatura Precipitação Vento Pressão Humidade
00:00 +18°C° 1.1 mm 4 m/s 732 mmHg 97%
01:00 +18°C° 1.1 mm 4 m/s 732 mmHg 97%
02:00 +18°C° 1.1 mm 4 m/s 731 mmHg 97%
03:00 +17°C° 1.5 mm 4 m/s 731 mmHg 97%
04:00 +17°C° 1.5 mm 4 m/s 731 mmHg 97%
05:00 +17°C° 1.5 mm 4 m/s 731 mmHg 97%
06:00 +17°C° 0.4 mm 4 m/s 730 mmHg 97%
07:00 +17°C° 0.4 mm 4 m/s 730 mmHg 97%
08:00 +17°C° 0.4 mm 4 m/s 730 mmHg 97%
09:00 +17°C° 0.1 mm 4 m/s 730 mmHg 97%
10:00 +17°C° 0.1 mm 3 m/s 730 mmHg 98%
11:00 +17°C° 0.1 mm 3 m/s 730 mmHg 98%
12:00 +17°C° 0.4 mm 3 m/s 730 mmHg 98%
13:00 +17°C° 0.4 mm 4 m/s 730 mmHg 98%
14:00 +17°C° 0.4 mm 4 m/s 730 mmHg 98%
15:00 +17°C° 0.4 mm 4 m/s 730 mmHg 98%
16:00 +17°C° 0.4 mm 4 m/s 730 mmHg 98%
17:00 +18°C° 0.4 mm 4 m/s 730 mmHg 98%
18:00 +17°C° 0.1 mm 4 m/s 730 mmHg 98%
19:00 +17°C° 0.1 mm 4 m/s 730 mmHg 98%
20:00 +16°C° 0.1 mm 5 m/s 730 mmHg 98%
21:00 +16°C° 0.2 mm 5 m/s 730 mmHg 97%
22:00 +17°C° 0.2 mm 4 m/s 730 mmHg 97%
23:00 +17°C° 0.2 mm 4 m/s 730 mmHg 97%

30 Junho, Quarta-feira

Tempo Temperatura Precipitação Vento Pressão Humidade
00:00 +17°C° 0.1 mm 4 m/s 730 mmHg 96%
01:00 +15°C° 0.1 mm 4 m/s 730 mmHg 95%
02:00 +15°C° 0.1 mm 4 m/s 730 mmHg 94%
03:00 +15°C° 0 mm 4 m/s 730 mmHg 93%
04:00 +16°C° 0 mm 3 m/s 731 mmHg 92%
05:00 +16°C° 0 mm 3 m/s 731 mmHg 91%
06:00 +17°C° 0 mm 3 m/s 731 mmHg 86%
07:00 +18°C° 0 mm 3 m/s 731 mmHg 80%
08:00 +19°C° 0 mm 3 m/s 731 mmHg 75%
09:00 +21°C° 0 mm 3 m/s 731 mmHg 66%
10:00 +22°C° 0 mm 3 m/s 731 mmHg 58%
11:00 +25°C° 0 mm 3 m/s 732 mmHg 49%
12:00 +26°C° 0 mm 3 m/s 731 mmHg 47%
13:00 +26°C° 0 mm 3 m/s 731 mmHg 44%
14:00 +27°C° 0 mm 3 m/s 731 mmHg 42%
15:00 +26°C° 0 mm 3 m/s 731 mmHg 49%
16:00 +25°C° 0 mm 2 m/s 731 mmHg 56%
17:00 +23°C° 0 mm 2 m/s 731 mmHg 63%
18:00 +21°C° 0.1 mm 2 m/s 731 mmHg 69%
19:00 +21°C° 0.1 mm 1 m/s 731 mmHg 75%
20:00 +20°C° 0.1 mm 1 m/s 731 mmHg 81%
21:00 +18°C° 0.1 mm 2 m/s 731 mmHg 84%
22:00 +17°C° 0.1 mm 2 m/s 731 mmHg 87%
23:00 +16°C° 0.1 mm 2 m/s 731 mmHg 90%
Mostrar mais

Necessitamos do seu Consentimento

A Meteoprog e os seus Fornecedores de Serviços podem armazenar e aceder a dados pessoais como cookies, identificadores do dispositivo ou outras tecnologias semelhantes existentes no seu dispositivo e processar estes dados para personalizar conteúdos e anúncios, assim como funcionalidades nas redes sociais e análise de tráfego.

  • Armazenar e/ou aceder a informações no seu dispositivo

    Os cookies, identificadores do dispositivo ou outras informações podem ser armazenados ou acedidos no seu dispositivo, para os fins acima indicados.

  • Anúncios e conteúdos personalizados, medição de anúncios e conteúdos, dados sobre o público-alvo e desenvolvimento de produtos

    Os anúncios e os conteúdos podem ser personalizados com base num perfil. Podem ser adicionados dados adicionais para uma maior personalização dos anúncios e dos conteúdos. A eficácia dos anúncios e dos conteúdos pode ser medida. Podem ser obtidas informações sobre o público que visualizou os anúncios e os conteúdos. Estes dados podem ser usados para desenvolver ou melhorar sistemas, softwares ou a experiência do utilizador.

Ao clicar em "Eu concordo”, permitirá o uso de cookies, identificadores do dispositivo e web beacons mencionados ou outras tecnologias semelhantes. As configurações do navegador do seu dispositivo podem ser alteradas.

Para certos fins, podem ser invocados interesses legítimos ao invés de consentimento. Pode ler mais informação sobre este assunto na nossa Política de Privacidade e Cookies.